Weather observations for the past three days for
Camarillo, Camarillo Airport
Imperial (Metric)
Date Time (pdt) Wind (mph) Vis. (mi.) Weather Sky Cond. Temperature (ºF) Relative Humidity Wind Chill (°F) Heat Index (°F) Pressure Precipitation (in)
Air Dwpt 6 hour altimeter (in) sea level (mb) 1 hr 3 hr 6 hr
Max. Min.
22 16:55 W 9 10.00 Fair CLR 78.1 69.1 82 78.1 74% 80 29.81 1010.4
22 15:55 W 9 10.00 Fair CLR 82 70 67% 86 29.82 1010.6
22 14:55 W 10 10.00 Fair CLR 82 70 67% 86 29.84 1011.1
22 13:55 W 8 10.00 Fair CLR 82 71.1 69% 86 29.86 1011.7
22 12:55 W 8 10.00 Fair CLR 82 71.1 69% 86 29.87 1012.1
22 11:55 W 9 10.00 Fair CLR 80.1 70 71% 83 29.86 1011.9
22 10:55 W 7 10.00 Fair CLR 79 70 80.1 63 74% 82 29.86 1011.9
22 09:55 Vrbl 7 10.00 Fair CLR 78.1 69.1 74% 80 29.87 1012.2
22 08:55 Calm 9.00 Fair CLR 73.9 66.9 79% 29.87 1012.2
22 07:55 Calm 8.00 Fair CLR 70 64.9 84% 29.87 1012.3
22 06:55 Calm 7.00 Fair CLR 66.9 63 87% 29.87 1012.2
22 05:55 Calm 7.00 Fair CLR 64 60.1 87% 29.87 1012.2
22 04:55 Calm 6.00 Fog/Mist CLR 64.9 61 66.9 64 87% 29.86 1011.7
22 03:55 NW 5 7.00 Fair CLR 64 60.1 87% 29.86 1011.8
22 02:55 Calm 6.00 Fog/Mist CLR 64.9 61 87% 29.86 1011.9
22 01:55 NW 3 7.00 Fair CLR 64.9 61 87% 29.87 1012.1
22 00:55 W 3 7.00 Fair CLR 66 62.1 87% 29.87 1012.3
21 23:55 W 5 7.00 Fair CLR 66 62.1 87% 29.88 1012.6
21 22:55 W 5 8.00 Fair CLR 66.9 63 81 66.9 87% 29.88 1012.5
21 21:55 W 3 8.00 Fair CLR 66.9 63 87% 29.88 1012.6
21 20:55 W 7 9.00 Fair CLR 69.1 64.9 87% 29.86 1012.1
21 19:55 W 5 10.00 Fair CLR 72 66.9 84% 29.85 1011.6
21 18:55 W 6 10.00 Fair CLR 75 66.9 76% 76 29.85 1011.5
21 17:55 W 7 10.00 Fair CLR 79 68 69% 81 29.84 1011.4
21 16:55 W 8 10.00 Fair CLR 81 66.9 82.9 80.1 62% 83 29.86 1011.7
21 15:55 SW 9 10.00 Fair CLR 81 68 65% 84 29.88 1012.4
21 14:55 W 9 10.00 Fair CLR 80.1 68 67% 83 29.89 1012.9
21 13:55 W 12 10.00 Fair CLR 82 68 63% 85 29.89 1013.0
21 12:55 W 9 10.00 Fair CLR 81 68 65% 84 29.9 1013.2
21 11:55 W 10 10.00 Fair CLR 81 69.1 67% 84 29.9 1013.3
21 10:55 W 7 10.00 Fair CLR 80.1 69.1 80.1 63 69% 83 29.9 1013.3
21 09:55 Calm 10.00 Fair CLR 77 66 69% 79 29.9 1013.4
21 08:55 W 5 10.00 Fair CLR 73 64.9 76% 29.9 1013.4
21 07:55 Calm 7.00 Fair CLR 66.9 63 87% 29.9 1013.4
21 06:55 Calm 6.00 Fog/Mist CLR 64.9 61 87% 29.89 1012.9
21 05:55 Calm 6.00 Fog/Mist CLR 64 60.1 87% 29.88 1012.5
21 04:55 Calm 6.00 Fog/Mist CLR 64 60.1 66.9 64 87% 29.87 1012.3
21 03:55 Calm 6.00 Fog/Mist CLR 64.9 61 87% 29.87 1012.2
21 02:55 Calm 6.00 Fog/Mist CLR 64.9 61 87% 29.88 1012.5
21 01:55 Calm 6.00 Fog/Mist CLR 66 62.1 87% 29.88 1012.5
21 00:55 Calm 6.00 Fog/Mist CLR 66 62.1 87% 29.88 1012.7
20 23:55 Calm 6.00 Fog/Mist CLR 66 62.1 87% 29.89 1012.8
20 22:55 W 3 6.00 Fog/Mist CLR 66 62.1 80.1 66 87% 29.88 1012.8
20 21:55 W 6 6.00 Fog/Mist CLR 66.9 63 87% 29.89 1012.9
20 20:55 W 7 7.00 Fair CLR 68 64 87% 29.88 1012.8
20 19:55 W 5 10.00 Fair CLR 71.1 66 84% 29.88 1012.6
20 18:55 W 6 10.00 Fair CLR 75 66.9 76% 76 29.88 1012.5
20 17:55 W 6 10.00 Fair CLR 78.1 68 71% 80 29.87 1012.2
20 16:55 W 7 10.00 Fair CLR 79 69.1 80.1 77 72% 82 29.89 1012.8
20 15:55 W 8 10.00 Fair CLR 79 68 69% 81 29.9 1013.4
20 14:55 W 8 10.00 Fair CLR 78.1 66.9 69% 80 29.92 1014.0
20 13:55 SW 9 10.00 Fair CLR 78.1 66.9 69% 80 29.93 1014.4
20 12:55 Vrbl 7 10.00 Fair CLR 77 66 69% 79 29.94 1014.8
20 11:55 Vrbl 7 10.00 Fair CLR 78.1 66.9 69% 80 29.95 1014.9
20 10:55 W 7 10.00 Fair CLR 78.1 66.9 78.1 63 69% 80 29.95 1015.0
20 09:55 Vrbl 5 10.00 Fair CLR 73.9 64.9 74% 29.95 1015.1
20 08:55 Calm 6.00 Fog/Mist OVC006 66.9 63 87% 29.96 1015.3
20 07:55 Calm 3.00 Fog/Mist OVC002 64 61 90% 29.96 1015.3
20 06:55 Calm 0.50 Fog VV002 64 61 90% 29.94 1014.7
20 05:55 N 3 0.50 Fog VV002 64 61 90% 29.93 1014.3
20 04:55 Calm 1.75 Fog/Mist OVC002 64.9 61 64.9 64 87% 29.92 1013.9
20 03:55 Calm 2.50 Fog/Mist OVC003 64 61 90% 29.92 1013.9
20 02:55 Calm 0.75 Fog/Mist OVC002 64 62.1 93% 29.92 1013.9
20 01:55 Calm 0.75 Fog/Mist OVC002 64 62.1 93% 29.92 1014.0
20 00:55 Calm 1.00 Fog/Mist OVC002 64 61 90% 29.93 1014.2
19 23:55 NW 3 0.25 Fog VV002 64 61 90% 29.94 1014.6
19 22:55 W 5 2.50 Fog/Mist OVC002 64 61 75.9 64 90% 29.95 1014.8
19 21:55 W 3 3.00 Fog/Mist OVC003 64 61 90% 29.95 1015.0
19 20:55 SW 3 6.00 Fog/Mist OVC004 64.9 61 87% 29.95 1014.9
19 19:55 W 6 6.00 Fog/Mist OVC006 66.9 63 87% 29.94 1014.5
19 18:55 W 9 8.00 Fair CLR 70 64.9 84% 29.92 1014.1
19 17:55 W 7 10.00 Fair CLR 73.9 66.9 79% 29.93 1014.2
Date Time (pdt) Wind (mph) Vis. (mi.) Weather Sky Cond. Air Dwpt Max. Min. Relative Humidity Wind Chill (°F) Heat Index (°F) altimeter (in) sea level (mb) 1 hr 3 hr 6 hr
6 hour
Temperature (ºF) Pressure Precipitation (in)